| time (UTC) | temp F | wind direction | speed MPH | gust MPH | rain 1hr in | rain 24hr in | rain mn in | humidity % | barometer mb |
| 20260502233020 | 81 | 305 | 3.0 | 42.0 | 0.00 | 0.00 | 0.00 | 100 | 1010.4 |
| 20260502232016 | 81 | 302 | 2.0 | 41.0 | 0.00 | 0.00 | 0.00 | 100 | 1010.3 |
| 20260502231017 | 81 | 322 | 2.0 | 42.0 | 0.00 | 0.00 | 0.00 | 100 | 1010.1 |
| 20260502230018 | 81 | 321 | 3.0 | 46.0 | 0.00 | 0.00 | 0.00 | 100 | 1009.9 |
| 20260502225018 | 81 | 306 | 3.0 | 47.0 | 0.00 | 0.00 | 0.00 | 100 | 1009.8 |
| 20260502224040 | 81 | 311 | 2.0 | 15.0 | 0.00 | 0.00 | 0.00 | 100 | 1009.8 |
| 20260502223021 | 81 | 322 | 3.0 | 44.0 | 0.00 | 0.00 | 0.00 | 100 | 1009.7 |
| 20260502222015 | 82 | 306 | 3.0 | 45.0 | 0.00 | 0.00 | 0.00 | 100 | 1009.7 |
| 20260502221037 | 82 | 311 | 3.0 | 44.0 | 0.00 | 0.00 | 0.00 | 100 | 1009.7 |
| 20260502220018 | 82 | 320 | 3.0 | 43.0 | 0.00 | 0.00 | 0.00 | 100 | 1009.6 |
| 20260502215039 | 82 | 310 | 3.0 | 45.0 | 0.00 | 0.00 | 0.00 | 100 | 1009.5 |
| 20260502214019 | 82 | 306 | 2.0 | 13.0 | 0.00 | 0.00 | 0.00 | 100 | 1009.3 |
| 20260502213021 | 82 | 312 | 3.0 | 44.0 | 0.00 | 0.00 | 0.00 | 100 | 1009.2 |
| 20260502212020 | 82 | 306 | 3.0 | 45.0 | 0.00 | 0.00 | 0.00 | 100 | 1009.2 |
| 20260502211017 | 83 | 317 | 2.0 | 41.0 | 0.00 | 0.00 | 0.00 | 100 | 1009.1 |
| 20260502210158 | 83 | 304 | 3.0 | 42.0 | 0.00 | 0.00 | 0.00 | 100 | 1009.1 |
| 20260502205018 | 83 | 322 | 3.0 | 42.0 | 0.00 | 0.00 | 0.00 | 100 | 1009.0 |
| 20260502204018 | 83 | 313 | 3.0 | 44.0 | 0.00 | 0.00 | 0.00 | 100 | 1009.0 |
| 20260502203020 | 83 | 320 | 2.0 | 41.0 | 0.00 | 0.00 | 0.00 | 100 | 1009.0 |
| 20260502202021 | 83 | 304 | 3.0 | 44.0 | 0.00 | 0.00 | 0.00 | 100 | 1009.0 |
| 20260502201016 | 83 | 314 | 2.0 | 41.0 | 0.00 | 0.00 | 0.00 | 100 | 1009.1 |
| 20260502200017 | 83 | 308 | 3.0 | 45.0 | 0.00 | 0.00 | 0.00 | 100 | 1009.1 |
| 20260502195018 | 83 | 309 | 3.0 | 44.0 | 0.00 | 0.00 | 0.00 | 100 | 1009.1 |
| 20260502194018 | 83 | 312 | 3.0 | 43.0 | 0.00 | 0.00 | 0.00 | 100 | 1009.2 |
| 20260502193020 | 83 | 309 | 2.0 | 41.0 | 0.00 | 0.00 | 0.00 | 100 | 1009.3 |
| 20260502192020 | 83 | 308 | 3.0 | 42.0 | 0.00 | 0.00 | 0.00 | 100 | 1009.3 |
| 20260502191016 | 83 | 309 | 3.0 | 43.0 | 0.00 | 0.00 | 0.00 | 100 | 1009.4 |
| 20260502190017 | 84 | 320 | 2.0 | 39.0 | 0.00 | 0.00 | 0.00 | 100 | 1009.5 |
| 20260502185018 | 84 | 314 | 3.0 | 44.0 | 0.00 | 0.00 | 0.00 | 100 | 1009.5 |
| 20260502184018 | 84 | 317 | 2.0 | 34.0 | 0.00 | 0.00 | 0.00 | 100 | 1009.6 |
| 20260502183119 | 84 | 305 | 2.0 | 38.0 | 0.00 | 0.00 | 0.00 | 100 | 1009.8 |
| 20260502182020 | 84 | 317 | 2.0 | 41.0 | 0.00 | 0.00 | 0.00 | 100 | 1010.0 |
| 20260502181017 | 84 | 319 | 3.0 | 44.0 | 0.00 | 0.00 | 0.00 | 100 | 1010.2 |
| 20260502164018 | 85 | 319 | 3.0 | 43.0 | 0.00 | 0.00 | 0.00 | 100 | 1011.1 |
| 20260502163019 | 85 | 311 | 3.0 | 43.0 | 0.00 | 0.00 | 0.00 | 100 | 1011.2 |
| 20260502162100 | 85 | 307 | 3.0 | 45.0 | 0.00 | 0.00 | 0.00 | 100 | 1011.1 |
| 20260502161036 | 85 | 312 | 2.0 | 30.0 | 0.00 | 0.00 | 0.00 | 100 | 1011.2 |
| 20260502152020 | 87 | 313 | 3.0 | 42.0 | 0.00 | 0.00 | 0.00 | 100 | 1011.1 |
| 20260502151016 | 87 | 310 | 3.0 | 43.0 | 0.00 | 0.00 | 0.00 | 100 | 1010.9 |
| 20260502123020 | 89 | 307 | 2.0 | 33.0 | 0.00 | 0.00 | 0.00 | 100 | 1008.4 |
| 20260502122021 | 89 | 313 | 3.0 | 43.0 | 0.00 | 0.00 | 0.00 | 100 | 1008.2 |
| 20260502121016 | 89 | 308 | 3.0 | 43.0 | 0.00 | 0.00 | 0.00 | 100 | 1008.0 |
| 20260502115037 | 90 | 299 | 3.0 | 48.0 | 0.00 | 0.00 | 0.00 | 100 | 1007.8 |
| 20260502114018 | 90 | 298 | 3.0 | 42.0 | 0.00 | 0.00 | 0.00 | 100 | 1007.7 |
| 20260502113020 | 91 | 304 | 3.0 | 42.0 | 0.00 | 0.00 | 0.00 | 100 | 1007.6 |
| 20260502112020 | 92 | 312 | 3.0 | 43.0 | 0.00 | 0.00 | 0.00 | 100 | 1007.6 |
| 20260502111016 | 92 | 313 | 3.0 | 44.0 | 0.00 | 0.00 | 0.00 | 100 | 1007.5 |
| 20260502110018 | 93 | 320 | 2.0 | 14.0 | 0.00 | 0.00 | 0.00 | 100 | 1007.2 |
| 20260502105018 | 92 | 325 | 3.0 | 44.0 | 0.00 | 0.00 | 0.00 | 100 | 1007.0 |
| 20260502104018 | 93 | 327 | 2.0 | 40.0 | 0.00 | 0.00 | 0.00 | 100 | 1007.1 |
| 20260502103019 | 93 | 317 | 3.0 | 42.0 | 0.00 | 0.00 | 0.00 | 100 | 1007.1 |
| 20260502102019 | 93 | 319 | 3.0 | 44.0 | 0.00 | 0.00 | 0.00 | 100 | 1007.1 |
| 20260502101043 | 93 | 311 | 3.0 | 47.0 | 0.00 | 0.00 | 0.00 | 100 | 1007.0 |
| 20260502091021 | 93 | 320 | 3.0 | 46.0 | 0.00 | 0.00 | 0.00 | 100 | 1007.1 |
| 20260502071020 | 99 | 318 | 3.0 | 45.0 | 0.00 | 0.00 | 0.00 | 77 | 1008.7 |
| 20260502070016 | 99 | 325 | 3.0 | 45.0 | 0.00 | 0.00 | 0.00 | 73 | 1008.7 |
| 20260502065017 | 99 | 309 | 2.0 | 19.0 | 0.00 | 0.00 | 0.00 | 67 | 1008.9 |
| 20260502064038 | 98 | 315 | 2.0 | 40.0 | 0.00 | 0.00 | 0.00 | 67 | 1009.0 |
| 20260502063019 | 98 | 330 | 2.0 | 41.0 | 0.00 | 0.00 | 0.00 | 66 | 1009.1 |
| 20260502062019 | 98 | 323 | 2.0 | 32.0 | 0.00 | 0.00 | 0.00 | 68 | 1009.3 |
| 20260502061020 | 97 | 318 | 2.0 | 41.0 | 0.00 | 0.00 | 0.00 | 72 | 1009.5 |
| 20260502060016 | 97 | 308 | 3.0 | 46.0 | 0.00 | 0.00 | 0.00 | 74 | 1009.6 |
| 20260502055037 | 97 | 326 | 3.0 | 44.0 | 0.00 | 0.00 | 0.00 | 74 | 1009.8 |
| 20260502054017 | 96 | 322 | 2.0 | 41.0 | 0.00 | 0.00 | 0.00 | 77 | 1009.8 |
| 20260502053019 | 96 | 319 | 3.0 | 44.0 | 0.00 | 0.00 | 0.00 | 67 | 1009.9 |
| 20260502052039 | 97 | 311 | 3.0 | 44.0 | 0.00 | 0.00 | 0.00 | 64 | 1010.0 |
| 20260502051020 | 97 | 307 | 3.0 | 46.0 | 0.00 | 0.00 | 0.00 | 63 | 1010.0 |
| 20260502050015 | 96 | 316 | 3.0 | 43.0 | 0.00 | 0.00 | 0.00 | 68 | 1010.1 |
| 20260502045017 | 95 | 330 | 3.0 | 44.0 | 0.00 | 0.00 | 0.00 | 75 | 1010.2 |
| 20260502044018 | 94 | 306 | 3.0 | 43.0 | 0.00 | 0.00 | 0.00 | 76 | 1010.4 |
| 20260502043019 | 95 | 323 | 2.0 | 41.0 | 0.00 | 0.00 | 0.00 | 79 | 1010.6 |
| 20260502042020 | 95 | 321 | 2.0 | 41.0 | 0.00 | 0.00 | 0.00 | 82 | 1010.8 |
| 20260502041020 | 94 | 321 | 3.0 | 46.0 | 0.00 | 0.00 | 0.00 | 84 | 1011.0 |
| 20260502040016 | 94 | 321 | 2.0 | 41.0 | 0.00 | 0.00 | 0.00 | 84 | 1011.2 |
| 20260502035016 | 94 | 317 | 2.0 | 38.0 | 0.00 | 0.00 | 0.00 | 88 | 1011.3 |
| 20260502034017 | 94 | 324 | 3.0 | 43.0 | 0.00 | 0.00 | 0.00 | 97 | 1011.4 |
| 20260502033018 | 93 | 313 | 3.0 | 46.0 | 0.00 | 0.00 | 0.00 | 100 | 1011.5 |
| 20260502032019 | 93 | 322 | 2.0 | 32.0 | 0.00 | 0.00 | 0.00 | 100 | 1011.6 |
| 20260502031039 | 92 | 335 | 3.0 | 43.0 | 0.00 | 0.00 | 0.00 | 100 | 1011.7 |
| 20260502030020 | 91 | 323 | 2.0 | 41.0 | 0.00 | 0.00 | 0.00 | 100 | 1011.7 |
| 20260502025016 | 91 | 338 | 3.0 | 44.0 | 0.00 | 0.00 | 0.00 | 100 | 1011.7 |
| 20260502024017 | 91 | 341 | 3.0 | 42.0 | 0.00 | 0.00 | 0.00 | 100 | 1011.7 |
| 20260502023019 | 90 | 320 | 2.0 | 40.0 | 0.00 | 0.00 | 0.00 | 100 | 1011.7 |
| 20260502022019 | 90 | 312 | 3.0 | 44.0 | 0.00 | 0.00 | 0.00 | 100 | 1011.7 |
| 20260502021039 | 89 | 314 | 3.0 | 42.0 | 0.00 | 0.00 | 0.00 | 100 | 1011.6 |
| 20260502020021 | 89 | 320 | 3.0 | 42.0 | 0.00 | 0.00 | 0.00 | 100 | 1011.6 |
| 20260502015017 | 89 | 315 | 3.0 | 48.0 | 0.00 | 0.00 | 0.00 | 100 | 1011.5 |
| 20260502014038 | 88 | 308 | 3.0 | 44.0 | 0.00 | 0.00 | 0.00 | 100 | 1011.4 |
| 20260502013018 | 87 | 312 | 2.0 | 20.0 | 0.00 | 0.00 | 0.00 | 100 | 1011.4 |
| 20260502012019 | 86 | 319 | 3.0 | 46.0 | 0.00 | 0.00 | 0.00 | 100 | 1011.2 |
| 20260502011019 | 86 | 335 | 2.0 | 42.0 | 0.00 | 0.00 | 0.00 | 100 | 1011.2 |
| 20260502005037 | 85 | 338 | 3.0 | 43.0 | 0.00 | 0.00 | 0.00 | 100 | 1011.1 |
| 20260502004016 | 84 | 337 | 2.0 | 42.0 | 0.00 | 0.00 | 0.00 | 100 | 1011.1 |
| 20260502003018 | 83 | 336 | 3.0 | 48.0 | 0.00 | 0.00 | 0.00 | 100 | 1011.0 |
| 20260502002019 | 83 | 338 | 2.0 | 32.0 | 0.00 | 0.00 | 0.00 | 100 | 1010.9 |
| 20260502001040 | 82 | 331 | 3.0 | 43.0 | 0.00 | 0.00 | 0.00 | 100 | 1010.7 |
| 20260502000020 | 82 | 322 | 3.0 | 44.0 | 0.00 | 0.00 | 0.00 | 100 | 1010.5 |
| 20260501235036 | 82 | 329 | 3.0 | 43.0 | 0.00 | 0.00 | 0.00 | 100 | 1010.3 |
| 20260501234017 | 82 | 314 | 3.0 | 46.0 | 0.00 | 0.00 | 0.00 | 100 | 1010.1 |